[[{"header":{"parameterUnit":"m.s-1","parameterCategory":1,"la1":30.2991,"la2":30.254,"lo1":-89.0895,"lo2":-89.0444,"dy":0.0017,"dx":0.0017,"nx":28,"ny":28,"refTime":"2024-07-20T21:00:00:Z","depth":0,"parameterNumber":2,"parameterNumberName":"U-component_of_WINDS"},"data":[0,0,0,0,0,0,0,0,0,0,0,0,0,0,0,0,0,0,0,0,0,0,0,0,0,0,0,0,0,0,0,0,0,0,0,0,0,0,0,0,0,0,0,0,0,0,0,0,0,0,0,0,0,0,0,0,0,0,3.4586,3.4587,0,3.4705,3.4706,3.4708,3.4685,3.4682,3.468,3.4678,3.4798,3.4804,3.4809,0,0,0,0,0,0,0,0,0,0,0,0,0,3.4334,3.4339,3.4586,3.4587,3.4589,3.4705,3.4707,3.4708,3.4685,3.4682,3.468,3.4677,3.4797,3.4803,3.4809,0,0,0,0,0,0,0,0,0,0,0,0,0,3.4447,3.434,3.4586,3.4591,3.4593,3.4705,3.4707,3.4709,3.4685,3.4682,3.4679,3.4676,3.4795,3.4802,3.481,3.4923,0,0,3.4834,3.4837,0,0,0,0,0,0,0,0,3.4441,3.4456,3.4589,3.4591,3.4593,3.4677,3.4662,3.478,3.4686,3.465,3.4678,3.4674,3.476,3.4771,3.48,3.4928,3.4934,3.4835,3.4839,3.4843,3.4845,0,0,0,0,0,0,0,3.4433,3.4451,3.4633,3.4591,3.4594,3.4586,3.4599,3.4684,3.4722,3.4653,3.4652,3.4666,3.4761,3.4793,3.4803,3.4935,3.4834,3.4841,3.4846,3.4849,3.5156,3.516,0,0,0,0,0,0,3.4424,3.4445,3.4629,3.4637,3.4508,3.4594,3.4608,3.4653,3.4721,3.4728,3.4669,3.4665,3.4781,3.4794,3.4807,3.4939,3.4843,3.485,3.4854,3.5153,3.5157,3.5161,0,0,0,0,0,0,3.4418,3.444,3.4624,3.454,3.4563,3.4601,3.4653,3.4657,3.4689,3.4733,3.4739,3.4695,3.4779,3.4796,3.4893,3.4943,3.4853,3.4861,3.5149,3.5154,3.5159,3.5207,0,0,0,0,0,0,3.4411,3.4439,3.4483,3.4542,3.4568,3.471,3.4656,3.4662,3.4703,3.4698,3.4759,3.4766,3.4778,3.4881,3.4901,3.4952,3.4867,3.5144,3.5151,3.5157,3.5201,3.5213,3.5224,0,0,0,0,0,3.4402,3.4493,3.4486,3.4508,3.4624,3.4713,3.4728,3.474,3.4707,3.4751,3.4778,3.4764,3.4935,3.4892,3.4913,3.4968,3.5141,3.5149,3.5157,3.5196,3.5211,3.5224,0,0,0,0,0,0,3.444,3.4501,3.4493,3.4606,3.4654,3.4709,3.4765,3.4757,3.4815,3.4809,3.4821,3.4835,3.4933,3.4961,3.4911,3.5078,3.5033,3.5046,3.5056,3.507,3.5081,3.5071,3.4873,0,0,0,0,0,3.4461,3.4529,3.4578,3.4672,3.4697,3.4727,3.4766,3.4771,3.4822,3.4842,3.4877,3.4926,3.499,3.5032,3.5094,3.5206,3.5216,3.5254,3.5265,3.5274,3.5284,3.534,3.5356,3.5186,3.5186,3.5186,0,0,3.4506,3.4547,3.459,3.4681,3.4719,3.4787,3.4744,3.4819,3.4868,3.4853,3.4946,3.4973,3.5028,3.5131,3.5179,3.5157,3.5333,3.5284,3.5291,3.5296,3.535,3.5365,3.538,3.5192,3.5191,3.519,0,0,3.462,3.4661,3.4741,3.478,3.4838,3.4857,3.4876,3.4931,3.4948,3.5042,3.503,3.5089,3.5201,3.5239,3.5273,3.5399,3.5386,3.5419,3.5477,3.5532,3.5545,3.5557,3.5597,3.5612,3.5429,3.5429,3.543,0,3.4668,3.4771,3.4784,3.4858,3.4897,3.4886,3.4966,3.5003,3.5078,3.5104,3.5079,3.5216,3.5253,3.5363,3.5393,3.5423,3.5442,3.5411,3.5542,3.5554,3.5565,3.5604,3.562,3.5433,3.5432,3.5432,3.5432,0,3.4824,3.4896,3.4954,3.5025,3.5071,3.5148,3.517,3.5214,3.5215,3.5235,3.5328,3.5371,3.544,3.5467,3.5469,3.5576,3.556,3.5539,3.5494,3.5584,3.5621,3.5636,3.5437,3.5436,3.5435,3.5434,0,0,3.4966,3.5042,3.5063,3.5093,3.5155,3.5209,3.5284,3.5351,3.5387,3.5439,3.5499,3.5593,3.5572,3.5611,3.5617,3.5666,3.5756,3.5638,3.5639,3.5655,3.5871,3.5884,3.5901,3.5749,3.5752,3.5755,3.5865,0,3.5084,3.5216,3.5228,3.5346,3.5409,3.5399,3.5463,3.5507,3.5527,3.5583,3.5606,3.567,3.564,3.5663,3.571,3.5735,3.5799,3.5728,3.5803,3.5805,3.5785,3.5921,3.5936,3.6038,3.588,3.5882,3.5884,0,3.5238,3.5293,3.5417,3.5466,3.5493,3.5551,3.561,3.5665,3.5713,3.5724,3.5766,3.5765,3.5839,3.5793,3.5893,3.5844,3.5875,3.5892,3.5896,3.5901,3.5848,3.5925,3.6071,3.6085,3.5908,3.5906,3.5904,0,3.5323,3.5429,3.5515,3.5542,3.5603,3.5643,3.567,3.5715,3.5753,3.5805,3.5829,3.5889,3.5922,3.5967,3.5981,3.5947,3.6079,3.6036,3.6088,3.6087,3.6114,3.6111,3.6263,3.6141,3.614,3.614,3.614,0,3.5451,3.5526,3.5553,3.5606,3.5689,3.5701,3.5782,3.5807,3.5846,3.5902,3.5897,3.5949,3.5966,3.6021,3.6032,3.6111,3.6127,3.6135,3.6137,3.6134,3.6132,3.6152,3.6144,3.6144,3.6143,3.6142,3.6142,0,3.5559,3.5581,3.5674,3.5723,3.5737,3.5795,3.5836,3.5885,3.5905,3.5975,3.5992,3.6021,3.6084,3.6104,3.6181,3.6188,3.6278,3.6276,3.6262,3.6261,3.631,3.6304,3.6477,3.6498,3.6366,3.6367,3.6368,0,3.5637,3.5694,3.5749,3.5786,3.5814,3.5874,3.5912,3.5926,3.5965,3.6022,3.6064,3.6126,3.6176,3.6277,3.6305,3.6362,3.6358,3.6415,3.6367,3.636,3.6354,3.6349,3.6352,3.6423,3.6424,3.6425,3.6426,0,3.5772,3.5779,3.5835,3.5893,3.5938,3.5985,3.6029,3.6059,3.6079,3.6123,3.6187,3.6226,3.6303,3.6364,3.6421,3.6447,3.6439,3.6441,3.6456,3.6451,3.6439,3.6442,3.6282,3.6437,3.6436,3.6435,3.6434,3.6434,3.5865,3.5913,3.5958,3.6018,3.6053,3.6094,3.6142,3.6166,3.622,3.6283,3.6288,3.6356,3.6399,3.6476,3.6505,3.6557,3.654,3.6562,3.6567,3.6571,3.6573,3.6434,3.6568,3.6568,3.6567,3.6567,3.6567,0,3.5995,3.6023,3.6079,3.614,3.6187,3.6176,3.6224,3.6263,3.6323,3.6365,3.6414,3.6485,3.6543,3.6574,3.6631,3.6667,3.6664,3.6681,3.6677,3.6682,3.6587,3.6567,3.6682,3.6682,3.6682,3.6682,3.6682,3.6682,3.6068,3.6148,3.616,3.6256,3.6283,3.635,3.6377,3.6414,3.6446,3.6526,3.6574,3.6594,3.663,3.669,3.6741,3.6749,3.6768,3.6786,3.6791,3.6701,3.6689,3.6678,3.6659,3.6791,3.6791,3.6881,3.6882,3.6883]},{"header":{"parameterUnit":"m.s-1","parameterCategory":1,"la1":30.2991,"la2":30.254,"lo1":-89.0895,"lo2":-89.0444,"dy":0.0017,"dx":0.0017,"nx":28,"ny":28,"refTime":"2024-07-20T21:00:00:Z","depth":0,"parameterNumber":3,"parameterNumberName":"V-component_of_WINDS"},"data":[0,0,0,0,0,0,0,0,0,0,0,0,0,0,0,0,0,0,0,0,0,0,0,0,0,0,0,0,0,0,0,0,0,0,0,0,0,0,0,0,0,0,0,0,0,0,0,0,0,0,0,0,0,0,0,0,0,0,2.2649,2.265,0,2.2699,2.2699,2.27,2.2663,2.2662,2.266,2.2659,2.2709,2.2712,2.2715,0,0,0,0,0,0,0,0,0,0,0,0,0,2.252,2.2523,2.2649,2.265,2.265,2.2699,2.2699,2.27,2.2664,2.2662,2.266,2.2658,2.2708,2.2712,2.2715,0,0,0,0,0,0,0,0,0,0,0,0,0,2.2574,2.2524,2.2649,2.2638,2.2637,2.2699,2.2699,2.27,2.2664,2.2662,2.2659,2.2657,2.2707,2.2711,2.2716,2.279,0,0,2.2729,2.2731,0,0,0,0,0,0,0,0,2.2571,2.2579,2.2639,2.2639,2.2638,2.2672,2.2673,2.2731,2.2665,2.2654,2.2659,2.2656,2.2699,2.2704,2.2718,2.2793,2.2795,2.2729,2.2732,2.2733,2.2735,0,0,0,0,0,0,0,2.2567,2.2576,2.2669,2.264,2.2639,2.263,2.2635,2.2683,2.2689,2.2655,2.2652,2.2659,2.2698,2.2714,2.2719,2.2796,2.2729,2.2733,2.2735,2.2737,2.2931,2.2934,0,0,0,0,0,0,2.2565,2.2573,2.2667,2.267,2.2598,2.2634,2.264,2.2664,2.2689,2.269,2.2661,2.2657,2.2708,2.2714,2.2721,2.2809,2.2733,2.2737,2.274,2.2929,2.2932,2.2935,0,0,0,0,0,0,2.2562,2.2573,2.2665,2.2621,2.2632,2.2639,2.2666,2.2666,2.2682,2.2693,2.2694,2.2676,2.2707,2.2715,2.2773,2.281,2.2739,2.2743,2.2926,2.293,2.2933,2.2986,0,0,0,0,0,0,2.2558,2.2573,2.2602,2.2622,2.2635,2.2717,2.2669,2.2669,2.269,2.2685,2.2708,2.2709,2.2705,2.2767,2.2777,2.2815,2.2747,2.2922,2.2928,2.2932,2.2981,2.2991,2.3,0,0,0,0,0,2.2554,2.2615,2.2603,2.2615,2.2671,2.2719,2.2726,2.2721,2.2693,2.2722,2.2728,2.2709,2.2804,2.2773,2.2784,2.2824,2.292,2.2926,2.2932,2.2977,2.2989,2.3,0,0,0,0,0,0,2.2599,2.2618,2.2605,2.2674,2.2696,2.2713,2.2749,2.2734,2.2764,2.2758,2.275,2.2755,2.2816,2.2825,2.279,2.2896,2.2858,2.2866,2.2888,2.29,2.2909,2.2905,2.275,0,0,0,0,0,2.2617,2.2655,2.2669,2.2729,2.274,2.2743,2.2764,2.2757,2.2779,2.2788,2.2799,2.282,2.2854,2.2878,2.291,2.2982,2.2986,2.3014,2.3024,2.3032,2.3039,2.3076,2.3088,2.2954,2.2954,2.2954,0,0,2.2655,2.267,2.2694,2.2738,2.2754,2.2793,2.2751,2.2794,2.2822,2.2794,2.2849,2.2858,2.2881,2.2946,2.2975,2.2956,2.3077,2.3039,2.3045,2.3048,2.3083,2.3096,2.3107,2.2958,2.2957,2.2957,0,0,2.2744,2.2759,2.281,2.2826,2.285,2.2851,2.2863,2.2883,2.2887,2.2942,2.2921,2.2954,2.3015,2.3031,2.3048,2.314,2.3123,2.3151,2.3201,2.3237,2.3247,2.3257,2.3289,2.33,2.3158,2.3159,2.3159,0,2.2788,2.2846,2.2838,2.2882,2.2901,2.2877,2.2927,2.2943,2.2977,2.299,2.2968,2.3042,2.3056,2.3124,2.3146,2.316,2.3173,2.3149,2.3247,2.3256,2.3264,2.3295,2.3307,2.3162,2.3161,2.3161,2.3161,0,2.2898,2.2938,2.2976,2.3008,2.3032,2.3079,2.3078,2.3102,2.3093,2.3096,2.3152,2.3167,2.3202,2.3217,2.3209,2.3283,2.327,2.3248,2.3209,2.3281,2.3309,2.3321,2.3166,2.3165,2.3164,2.3163,0,0,2.3018,2.3044,2.3058,2.3071,2.3095,2.3125,2.3171,2.3204,2.3225,2.3248,2.3285,2.3336,2.3314,2.3333,2.3326,2.3358,2.3429,2.3331,2.3332,2.3348,2.351,2.3526,2.354,2.3417,2.3419,2.3421,2.3507,0,2.3107,2.3186,2.3179,2.3254,2.3291,2.3267,2.3306,2.3324,2.3328,2.3358,2.3362,2.3398,2.3367,2.3378,2.3408,2.3414,2.3461,2.3407,2.3451,2.3452,2.3446,2.3555,2.3573,2.3654,2.3518,2.352,2.3522,0,2.3222,2.3248,2.3327,2.3343,2.3358,2.3393,2.3422,2.3452,2.3472,2.3472,2.3492,2.3479,2.3524,2.3483,2.3544,2.3508,2.3525,2.353,2.3533,2.3536,2.3491,2.3561,2.368,2.3692,2.3539,2.3538,2.3537,0,2.33,2.3356,2.3409,2.3421,2.3442,2.3467,2.3477,2.3494,2.3514,2.3539,2.3551,2.3582,2.3598,2.3621,2.3617,2.3588,2.3678,2.3638,2.3679,2.3679,2.3699,2.3698,2.3822,2.3711,2.371,2.371,2.371,0,2.34,2.3449,2.3444,2.3477,2.353,2.3522,2.3574,2.3581,2.3596,2.3629,2.361,2.3641,2.3633,2.3664,2.366,2.371,2.3718,2.3719,2.3717,2.372,2.372,2.3731,2.3726,2.3713,2.3713,2.3712,2.3711,0,2.3497,2.3496,2.3553,2.3567,2.3572,2.361,2.3622,2.3652,2.3654,2.3696,2.3705,2.3707,2.3742,2.3739,2.3779,2.3776,2.3838,2.383,2.3831,2.383,2.387,2.3866,2.4006,2.4023,2.3901,2.3902,2.3903,0,2.3561,2.3598,2.3616,2.3636,2.3647,2.3681,2.3701,2.3693,2.3714,2.3738,2.3765,2.3798,2.3824,2.3881,2.3886,2.3915,2.3908,2.3954,2.3912,2.3913,2.3907,2.3905,2.3908,2.3963,2.3964,2.3965,2.3966,0,2.3674,2.3671,2.3701,2.373,2.3754,2.3776,2.3796,2.3814,2.3808,2.3833,2.3868,2.3888,2.3928,2.396,2.3988,2.3997,2.3981,2.3979,2.399,2.3994,2.3993,2.3993,2.3854,2.3976,2.3975,2.3975,2.3974,2.3974,2.3756,2.3787,2.3804,2.3837,2.3851,2.387,2.3899,2.3903,2.3932,2.3964,2.3957,2.3996,2.4013,2.4048,2.406,2.409,2.4073,2.4089,2.4093,2.4097,2.4102,2.3988,2.4095,2.4095,2.4095,2.4094,2.4094,0,2.3867,2.3876,2.3907,2.3935,2.3961,2.3942,2.3963,2.3986,2.4021,2.4037,2.4063,2.4103,2.4134,2.414,2.417,2.4192,2.4185,2.42,2.4199,2.4201,2.4116,2.4103,2.4205,2.4205,2.4205,2.4205,2.4205,2.4205,2.3928,2.3979,2.3978,2.4035,2.4043,2.4082,2.4095,2.4112,2.4125,2.417,2.4196,2.42,2.4212,2.4242,2.4269,2.427,2.4281,2.4299,2.4297,2.4218,2.4207,2.4196,2.4184,2.4302,2.4302,2.438,2.4381,2.4381]}]]